Flag for Canada Weather past 2 weeks in Brandon, Manitoba, Canada

Now
68 °F

Sprinkles. Mostly cloudy.


Feels Like: 68 °F
Forecast: N/A
Wind: 10 mph from South

Location: Brandon

Current Time: Sep 18, 2014 at 4:54:32 PM

Latest Report: Sep 18, 2014 at 4:00 PM


Visibility: 15 mi

Pressure: 29.68 "Hg

Humidity: 73%

Dew point: 59 °F

Location of BrandonLocation

Historic Weather in Brandon — Graph

°F

Brandon temperature yesterday

Maximum temperature yesterday: 52 °F (at 1:00 AM)
Minimum temperature yesterday: 37 °F (at 11:00 PM)
Average temperature yesterday: 44 °F

Past Weeks' High & Low Weather Summary

 TemperatureHumidityPressure
High77 °F (Sep 7, 4:00 PM)100% (Sep 3, 10:00 PM)30.52 "Hg (Sep 3, 10:00 PM)
Low30 °F (Sep 15, 6:00 AM)35% (Sep 11, 1:00 PM)29.55 "Hg (Sep 8, 7:00 AM)
Average50 °F75%30.09 "Hg
* Reported Sep 3 3:00 PM — Sep 18 3:00 PM, Brandon, Weather by CustomWeather, © 2014

Note: Actual official high and low records may vary slightly from our data, if they occured in-between our weather recording intervals... More about our weather records

Advertising

Brandon weather history for previous 24 hours

 ConditionsComfort  
Time TempWeatherWind HumidityBarometerVisibility
3:00 PM
Sep 18
75 °FMore clouds than sun.22 mph44%29.70 "Hg15 mi
2:00 PM75 °FOvercast.16 mph44%29.75 "Hg15 mi
1:00 PM73 °FPartly sunny.21 mph47%29.78 "Hg15 mi
12:00 PM68 °FPartly sunny.15 mph60%29.82 "Hg15 mi
11:00 AM55 °FPartly sunny.12 mph77%29.87 "Hg15 mi
10:00 AM46 °FPartly sunny.7 mph93%29.91 "Hg15 mi
9:00 AM41 °FBroken clouds.8 mph93%29.94 "Hg15 mi
8:00 AM36 °FPassing clouds.7 mph100%29.97 "Hg8 mi
7:00 AM34 °FFog.7 mph100%29.98 "Hg6 mi
6:00 AM34 °FClear.8 mph100%30.00 "Hg12 mi
5:00 AM34 °FClear.8 mph100%30.02 "Hg12 mi
4:00 AM36 °FClear.7 mph93%30.05 "Hg12 mi
3:00 AM34 °FClear.7 mph100%30.07 "Hg12 mi
2:00 AM36 °FClear.7 mph93%30.09 "Hg15 mi
1:00 AM37 °FClear.7 mph93%30.11 "Hg15 mi
12:00 AM37 °FClear.12 mph100%30.11 "Hg15 mi
11:00 PM
Sep 17
37 °FPassing clouds.8 mph93%30.12 "Hg15 mi
10:00 PM39 °FPassing clouds.9 mph93%30.12 "Hg15 mi
9:00 PM41 °FPassing clouds.8 mph93%30.13 "Hg15 mi
8:00 PM45 °FPartly sunny.13 mph81%30.12 "Hg15 mi
7:00 PM45 °FPartly sunny.10 mph81%30.13 "Hg15 mi
6:00 PM46 °FPartly sunny.15 mph76%30.13 "Hg15 mi
5:00 PM46 °FPartly sunny.14 mph76%30.14 "Hg15 mi
4:00 PM46 °FPartly sunny.10 mph76%30.15 "Hg15 mi
Weather by CustomWeather, © 2014

See weather overviewHow to use our weather pages